Location: Krasnoyarskiy Pitomnik
(51.1333°N, 71.6167°E)
Time: 08:55:35
(UTC+00:00)

SL-16 R/B - Pass Details

Date: 22 October 2021
Orbit: 842 x 846 km, 71.0° (Epoch: 05 December)

Event Time Altitude Azimuth Distance (km) Brightness Sun altitude
Rises 13:15:05 0° 181° (S) 3,388 5.4 -11.4°
Reaches altitude 10° 13:17:40 10° 173° (S) 2,458 4.6 -11.8°
Maximum altitude 13:22:49 38° 108° (ESE) 1,280 2.7 -12.6°
Drops below altitude 10° 13:27:59 10° 42° (NE) 2,476 4.2 -13.4°
Enters shadow 13:29:35 - 37° (NE) 3,048 4.7 -13.7°
